Regional Weather Roundup
Issued by NWS Newport/Morehead, NC

Current Version | Previous Version | Text Only | Print | Product List | Glossary On
Versions: 1 2 3 4 5 6 7 8 9 10 11 12 13 14 15 16 17 18 19 20 21 22 23 24 25 26 27 28 29 30 31 32 33 34 35 36 37 38 39 40 41 42 43 44 45 46 47 48 49 50
000 ASUS42 KMHX 240213 RWRMHX WEATHER ROUNDUP FOR EASTERN NORTH CAROLINA NATIONAL WEATHER SERVICE NEWPORT/MOREHEAD CITY NC 1000 PM EDT SAT MAY 23 2015 NOTE: "FAIR" INDICATES FEW OR NO CLOUDS BELOW 12,000 FEET WITH NO SIGNIFICANT WEATHER AND/OR OBSTRUCTIONS TO VISIBILITY NCZ015>017-031-032-045>047-102-103-240300- NORTH COAST CITY SKY/WX TMP DP RH WIND PRES REMARKS EDENTON CLEAR 61 50 66 E5 30.41R ELIZABETH CITY CLEAR 60 48 64 E7 30.42R KITTY HAWK CLEAR 60 55 83 E3 30.42R MANTEO CLEAR 60 54 82 E5 30.43R $$ NCZ045>047-081-094-103-104-240300- CENTRAL COAST CITY SKY/WX TMP DP RH WIND PRES REMARKS FRISCO CLEAR 60 56 86 NE6 30.42R SWANQUARTER N/A 61 N/A N/A E3 30.39S $$ NCZ095-097-098-100-101-240300- SOUTHERN COAST CITY SKY/WX TMP DP RH WIND PRES REMARKS BEAUFORT CLEAR 66 54 65 E5 30.41R CEDAR ISLAND N/A 68 N/A N/A E9G16 30.44S JACKSONVILLE CLEAR 69 55 60 SE9 30.39R PINEY ISLAND CLEAR N/A N/A N/A E9 30.41R WILMINGTON CLEAR 66 59 78 CALM 30.38R $$ NCZ011>013-027>030-043-044-078>080-089-090>093-098-240300- COASTAL PLAIN CITY SKY/WX TMP DP RH WIND PRES REMARKS AHOSKIE CLEAR 61 51 69 CALM 30.41R CLINTON CLEAR 65 53 64 CALM 30.39R ELIZABETHTOWN CLEAR 67 51 56 CALM 30.37S GOLDSBORO CLEAR 68 56 67 SE3 30.37R GREENVILLE CLEAR 68 52 56 S7 30.40R HAVELOCK CLEAR 62 52 69 E5 30.42R KENANSVILLE CLEAR 61 53 75 CALM 30.41R KINSTON NOT AVBL NEW BERN CLEAR 66 54 65 E7 30.42R RICHLANDS CLEAR 64 54 68 CALM 30.40R ROCKY MOUNT CLEAR 65 55 70 CALM 30.39R WASHINGTON CLEAR 65 51 61 SE6 30.41R WHITEVILLE CLEAR 64 54 69 CALM 30.37S $$ AMZ130-135-150-152-154-156-158-170-250-252-270-ANZ085-086-088-633-658-670-240300- MARINE OBSERVATIONS STATION/POSITION TIME TEMP WIND PRES WAVE SWELL AIR SEA DIR/SP/G HT/PER HT/PER (UTC) (F) (DEG/KT/KT) (MB) (FT/S) (FT/S) CHESAPEAKE LIGHT 0200 60 140/ 10/ 11 1030.9 64 E VA BEACH 0150 61 61 100/ 6/ 6 1030.0 2/ 5 2/ 5 DUCK 0100 61 64 100/ 9/ 10 1029.0 2 E DUCK 0111 63 N/A 2/ 5 OREGON INLET 0100 62 71 50/ 7/ 9 1029.9 13E OREGON INLT 0200 62 N/A 3/ 5 HATTERAS CG 0100 65 74 60/ 6/ 9 1028.9 DIAMOND BUOY 0150 70 78 60/ 10/ 14 1029.5 3/ 7 2/ 7 CAPE LOOKOUT 0200 70 70/ 11/ 12 1029.2 BEAUFORT LAB 0100 69 76 80/ 4/ 7 1028.4 27 SE WRIGHTSVLE 0100 70 77 100/ 14/ 17 N/A 5 SE WRIGHTSVLE 0108 74 76 120/ 12/ 17 1028.3 225 S CAPE HAT 0150 72 74 80/ 19/ 23 1027.3 7/ 6 41 SE CHARLESTON 0150 75 76 90/ 16/ 19 1026.6 4/ 7 2/ 8 $$

USA.gov is the U.S. government's official web portal to all federal, state and local government web resources and services.